パンスターズ彗星

C/2020 K4 ( PanSTARRS )

English version
Home page
Updated on June 29, 2020

---------------------------------------------------------------------

・ プロフィール

発見日 2020年5月20日
発見光度 19.7等
発見者 R. Wainscoat (Pan-STARRS1 1.8-m Ritchey-Chretien reflector at Haleakala)

・ 軌道要素

Epoch 2020 Mar. 12.0 TT = JDT 2458920.5
T 2020 Mar. 6.44316 TT                                  Rudenko
q   1.7723168            (2000.0)            P               Q
z  +0.0224548      Peri.  310.26050     +0.37879913     -0.45541012
 +/-0.0000000      Node   264.10385     -0.38611739     -0.86893256
e   0.9602030      Incl.  125.90795     -0.84108536     +0.19379843
From 40 observations 2020 May 20-June 23, mean residual 0".2.

・ 光度変化

        m1 = 16.5 + 5 logΔ + 10.0 log r

---------------------------------------------------------------------

軌道要素はM.P.E.C. 2020-M114に掲載されたものです。
光度グラフはComet for Windowsで作成したものです。

---------------------------------------------------------------------

Copyright(C) Seiichi Yoshida (comet@aerith.net). All rights reserved.